Location: Kaltenbach
(49.2000°N, 7.7500°E)
Time: 19:28:42
(UTC+00:00)

CZ-2C R/B - Pass Details

Date: 24 January 2020
Orbit: 704 x 908 km, 98.1° (Epoch: 28 February)

Event Time Altitude Azimuth Distance (km) Brightness Sun altitude
Exits shadow 18:32:42 35° 36° (NE) 1,357 3.9 -22.8°
Drops below altitude 10° 18:36:45 10° 358° (N) 2,552 5.7 -23.4°
Sets 18:39:20 0° 352° (N) 3,515 6.5 -23.8°
